SPHEREX DEB, 63332

Orbit data source: Space-Track

SPHEREX DEB, 63332 is space debris in SSO originally from a launch on Wed, 12 Mar 2025 UTC launched from the Air Force Western Test Range (AFWTR). Debris objects in space refer to the collection of defunct objects orbiting the Earth. Examples of debris include non-operational satellites, rocket bodies, and fragments generated from explosions, collisions, or faulty payload assembly.

Loading next visibility...
Identifier
63332, 2025-047F
Orbit
SSO
Country
Flag of USUS
Related business
Manufacturer
BAEB
Mission
Spacecraft
Bus & Motor
SPHEREX, Unknown motor
Mass
~5 kg wet, ~5 kg dry
Launch date (UTC)
2025-03-12 (1 year ago)
Launch vehicle
Unknown
Launch site
Air Force Western Test Range (AFWTR)
Object type
Payload
Rocket body
Debris
Shape & HBR
Cyl, 0.2 m
Radar Cross Section
0.188 m², Medium (>0.1 m² and < 1m²)

Expand to show TLE details & history
Last TLE update: 9 hours ago

TLE from 9 hours ago
0 SPHEREX DEB
1 63332U 25047F   26125.33136878  .00009044  00000-0  11885-2 0  9992
2 63332  97.9525 313.0609 0006142 318.1850  41.8892 14.80438512 60775
Epoch: 2026-05-05T07:57Z
TLE epoch observation values (Epoch: 2026-05-05T07:57:10.262Z)
Latitude
-0.00004°
Longitude
-29.4396°
Altitude
627.758 km
Speed
7.546 km/s
True Right ascension
20h 52m 14s
True Declination
0° 00' 00"
Sunlit
Object was in daylight at epoch
Visualization orbit readout
Latitude
Unknown
Longitude
Unknown
Altitude
Unknown
Speed
Unknown
Apparent Right ascension
Unknown
Apparent Declination
Unknown
Sunlit
N/A
Visualization observer readout
Local Sidereal Time
00:39:43
Azimuth
Unknown
Elevation
Unknown
Doppler factor
Unknown
Orbital elements
Apogee altitude
629.284 km
Perigee altitude
620.682 km
Semi-major axis
7,003.12 km
Eccentricity
0.00061
Inclination
97.9525°
RAAN
313.0609°
Arg. of periapsis
318.185°
True anomaly
41.93622°
Mean anomaly
41.8892°
Eccentric anomaly
41.91271°
Mean motion
3.70344 °/min
Orbital period
97.21 mins
BSTAR
0.0011885
Loading maneuver chart data...
Computing Atmospheric mass density...
Loading historical data...
Loading historical data...
Loading historical data...
Loading historical data...
Loading historical data...
Loading historical data...
Loading historical data...
Other satellites on launch #47 in the year 2025 (2025-03-12 UTC)

Documentation

Showing up to 5 results
|